Townsville Observation History
Time Wind Speed Temp Pressure Rel. Hum Rain
14/10:00am ESE 5-8 kts 27.8°c 1014.0 hPa 67% 0.0mm
14/09:30am ESE 5-7 kts 26.1°c 1014.0 hPa 76% 0.0mm
14/09:00am SSE 4-6 kts 25.7°c 1013.7 hPa 79% 0.0mm
14/08:30am S 5-6 kts 24.9°c 1013.5 hPa 85% 0.0mm
14/08:00am CALM 0 kts 23.1°c 1013.3 hPa 94% 0.0mm
14/07:30am WNW 2-5 kts 22.1°c 1013.1 hPa 98% 0.0mm
14/07:00am CALM 0 kts 20.7°c 1012.8 hPa 99% 0.0mm
14/06:30am CALM 0 kts 21.3°c 1012.2 hPa 99% 0.0mm
14/06:00am SSE 5-6 kts 21.5°c 1011.9 hPa 99% 0.0mm
14/05:30am SSE 6-8 kts 21.3°c 1011.7 hPa 100% 0.0mm
14/05:00am CALM 0 kts 21.0°c 1011.3 hPa 100% 0.0mm
14/04:30am SSW 4 kts 21.0°c 1011.2 hPa 97% 0.0mm
14/04:00am CALM 0-1 kts 22.2°c 1011.2 hPa 97% 0.0mm
14/03:30am CALM 0 kts 22.0°c 1011.2 hPa 98% 0.0mm
14/03:00am S 2-4 kts 21.8°c 1011.3 hPa 98% 0.0mm
14/02:30am NW 3-5 kts 21.8°c 1011.2 hPa 99% 0.0mm
14/02:00am WNW 5-6 kts 22.0°c 1011.5 hPa 97% 0.0mm
14/01:30am CALM 0-2 kts 23.5°c 1011.6 hPa 94% 0.0mm
14/01:00am SSE 4-6 kts 23.1°c 1011.7 hPa 97% 0.0mm
14/12:30am CALM 0 kts 22.4°c 1011.8 hPa 95% 0.0mm
14/12:00am SSE 4-5 kts 22.9°c 1011.9 hPa 95% 0.0mm
Time Wind Speed Temp Pressure Rel. Hum Rain
13/11:30pm SSE 4-5 kts 23.0°c 1012.1 hPa 95% 0.0mm
13/11:00pm SSE 5-6 kts 22.5°c 1012.1 hPa 95% 0.0mm
13/10:30pm SSW 3-4 kts 23.1°c 1012.1 hPa 91% 0.0mm
13/10:00pm W 4-5 kts 23.9°c 1012.2 hPa 91% 0.0mm
13/09:30pm CALM 0 kts 24.0°c 1012.1 hPa 91% 0.0mm
13/09:00pm CALM 0 kts 23.9°c 1012.2 hPa 93% 0.0mm
13/08:30pm CALM 0 kts 23.7°c 1012.0 hPa 90% 0.0mm
13/08:00pm CALM 0 kts 23.9°c 1011.8 hPa 91% 0.0mm
13/07:30pm WNW 1-3 kts 24.3°c 1011.6 hPa 90% 0.0mm
13/07:00pm E 3-5 kts 24.5°c 1011.3 hPa 88% 0.0mm
13/06:30pm ENE 6-7 kts 24.4°c 1011.0 hPa 88% 0.0mm
13/06:00pm ENE 6-8 kts 24.7°c 1010.9 hPa 88% 0.0mm
13/05:30pm ENE 8-11 kts 25.3°c 1010.4 hPa 85% 0.0mm
13/05:00pm ENE 9-11 kts 26.0°c 1010.3 hPa 81% 0.0mm
13/04:30pm ENE 10-12 kts 26.1°c 1010.1 hPa 80% 0.0mm
13/04:00pm ENE 11-13 kts 26.8°c 1009.8 hPa 75% 0.0mm
13/03:30pm ENE 12-15 kts 27.4°c 1009.7 hPa 73% 0.0mm
13/03:00pm ENE 12-14 kts 28.4°c 1009.7 hPa 73% 0.0mm
13/02:30pm ENE 12-14 kts 27.8°c 1010.1 hPa 70% 0.0mm
13/02:00pm ENE 9-11 kts 28.7°c 1010.3 hPa 68% 0.0mm
13/01:30pm NE 9-12 kts 28.7°c 1010.8 hPa 66% 0.0mm
13/01:00pm NE 10-13 kts 28.6°c 1011.1 hPa 67% 0.0mm
13/12:30pm NE 9-12 kts 29.0°c 1011.5 hPa 64% 0.0mm
13/12:00pm NE 9-12 kts 28.7°c 1011.9 hPa 66% 0.0mm
13/11:30am NE 6-9 kts 28.5°c 1012.2 hPa 67% 0.0mm
13/11:00am NE 7-9 kts 28.0°c 1012.5 hPa 70% 0.0mm
13/10:30am SSE 4-7 kts 28.5°c 1012.7 hPa 72% 0.0mm
13/10:00am SW 4-5 kts 27.6°c 1012.9 hPa 68% 0.0mm
13/09:30am WNW 4-6 kts 26.9°c 1013.1 hPa 70% 0.0mm
13/09:00am SSW 6-7 kts 26.2°c 1013.1 hPa 75% 0.0mm
13/08:30am S 3-5 kts 24.9°c 1013.0 hPa 83% 0.0mm
13/08:00am S 2-5 kts 23.0°c 1012.8 hPa 93% 0.0mm
13/07:30am CALM 0 kts 21.0°c 1012.6 hPa 100% 0.0mm
13/07:00am CALM 0 kts 19.4°c 1012.4 hPa 100% 0.0mm
13/06:30am CALM 0 kts 19.3°c 1012.0 hPa 100% 0.0mm
13/06:00am CALM 0 kts 19.1°c 1011.8 hPa 100% 0.0mm
13/05:30am CALM 0 kts 19.2°c 1011.6 hPa 100% 0.0mm
13/05:25am CALM 0 kts 19.1°c 1011.5 hPa 100% 0.0mm
13/05:00am CALM 0-2 kts 19.3°c 1011.4 hPa 100% 0.0mm
13/04:30am W 2-4 kts 19.4°c 1011.3 hPa 100% 0.0mm
13/04:00am W 4 kts 19.7°c 1011.2 hPa 100% 0.0mm
13/03:50am W 4-5 kts 19.6°c 1011.3 hPa 100% 0.0mm
13/03:30am SSE 4-5 kts 19.4°c 1011.3 hPa 100% 0.0mm
13/03:24am SSE 2-4 kts 19.8°c 1011.3 hPa 100% 0.0mm
13/03:00am SSE 3 kts 21.1°c 1011.4 hPa 97% 0.0mm
13/02:30am SSE 4-5 kts 21.5°c 1011.6 hPa 99% 0.0mm
13/02:00am SSE 4 kts 21.0°c 1011.9 hPa 100% 0.0mm
13/01:30am CALM 0 kts 20.9°c 1012.0 hPa 100% 0.0mm
13/01:00am W 2-4 kts 21.0°c 1012.3 hPa 100% 0.0mm
13/12:30am CALM 0 kts 21.1°c 1012.6 hPa 99% 0.0mm
13/12:00am CALM 0 kts 21.9°c 1012.8 hPa 99% 0.0mm
Time Wind Speed Temp Pressure Rel. Hum Rain
12/11:30pm CALM 0 kts 21.7°c 1012.8 hPa 98% 0.0mm
12/11:00pm CALM 0 kts 22.1°c 1012.8 hPa 100% 0.0mm
12/10:30pm SE 2-4 kts 22.0°c 1012.9 hPa 98% 0.0mm
12/10:00pm CALM 0 kts 22.8°c 1013.0 hPa 95% 0.0mm
12/09:30pm CALM 0 kts 23.5°c 1013.1 hPa 90% 0.0mm
12/09:00pm CALM 0 kts 23.7°c 1013.1 hPa 89% 0.0mm
12/08:30pm CALM 0-3 kts 23.7°c 1013.2 hPa 88% 0.0mm
12/08:00pm SSW 1-4 kts 24.3°c 1013.0 hPa 84% 0.0mm
12/07:30pm CALM 0 kts 24.4°c 1012.7 hPa 85% 0.0mm
12/07:00pm ENE 5-6 kts 24.3°c 1012.5 hPa 84% 0.0mm
12/06:30pm NE 6-7 kts 24.7°c 1012.3 hPa 84% 0.0mm
12/06:00pm NE 6-7 kts 25.0°c 1012.0 hPa 83% 0.0mm
12/05:30pm ENE 7-9 kts 25.9°c 1011.7 hPa 81% 0.0mm
12/05:00pm ENE 11-14 kts 26.4°c 1011.4 hPa 78% 0.0mm
12/04:30pm ENE 12-15 kts 27.1°c 1011.1 hPa 77% 0.0mm
12/04:00pm ENE 13-15 kts 27.6°c 1011.1 hPa 75% 0.0mm
12/03:30pm NE 12-15 kts 28.2°c 1011.1 hPa 69% 0.0mm
12/03:00pm NE 10-13 kts 28.7°c 1011.3 hPa 65% 0.0mm
12/02:30pm ENE 9-11 kts 29.0°c 1011.4 hPa 66% 0.0mm
12/02:00pm NE 9-12 kts 29.2°c 1011.6 hPa 66% 0.0mm
12/01:30pm ENE 9-12 kts 29.5°c 1012.0 hPa 65% 0.0mm
12/01:00pm NE 8-11 kts 29.2°c 1012.5 hPa 66% 0.0mm
12/12:30pm NE 9-11 kts 29.0°c 1013.0 hPa 68% 0.0mm
12/12:00pm NE 9-12 kts 29.1°c 1013.3 hPa 66% 0.0mm
12/11:30am WSW 4-7 kts 28.4°c 1014.0 hPa 69% 0.0mm
12/11:00am SSE 5-9 kts 27.3°c 1014.6 hPa 69% 0.0mm
12/10:30am SSE 7-10 kts 27.1°c 1014.8 hPa 71% 0.0mm
12/10:00am SSE 5-7 kts 26.8°c 1015.1 hPa 74% 0.0mm
12/09:30am SSW 5-7 kts 26.0°c 1015.0 hPa 83% 0.0mm
12/09:00am SSW 5-7 kts 24.7°c 1014.9 hPa 90% 0.0mm
12/08:30am SSW 1-5 kts 23.6°c 1014.9 hPa 95% 0.0mm
12/08:00am S 3-4 kts 22.8°c 1014.5 hPa 99% 0.0mm
12/07:30am CALM 0 kts 21.5°c 1014.2 hPa 100% 0.0mm
12/07:00am CALM 0 kts 20.6°c 1013.7 hPa 100% 0.0mm
12/06:30am CALM 0 kts 20.6°c 1013.4 hPa 100% 0.0mm
12/06:15am CALM 0 kts 20.6°c 1013.3 hPa 100% 0.0mm
12/06:00am CALM 0 kts 20.7°c 1013.3 hPa 100% 0.0mm
12/05:30am CALM 0 kts 20.8°c 1012.9 hPa 100% 0.0mm
12/05:03am CALM 0 kts 21.0°c 1012.8 hPa 99% 0.0mm
12/05:00am CALM 0 kts 21.1°c 1012.8 hPa 100% 0.0mm
12/04:30am CALM 0 kts 21.2°c 1012.9 hPa 100% 0.0mm
12/04:00am CALM 0 kts 21.3°c 1012.9 hPa 100% 0.0mm
12/03:30am CALM 0 kts 21.5°c 1012.8 hPa 99% 0.0mm
12/03:00am CALM 0 kts 21.8°c 1012.9 hPa 100% 0.0mm
12/02:30am CALM 0 kts 21.8°c 1013.1 hPa 100% 0.0mm
12/02:00am S 2-3 kts 22.1°c 1013.3 hPa 98% 0.0mm
12/01:55am S 3-4 kts 22.2°c 1013.3 hPa 98% 0.0mm
12/01:30am S 4 kts 22.8°c 1013.5 hPa 98% 0.0mm
12/01:00am S 4-5 kts 22.8°c 1013.7 hPa 97% 0.0mm
12/12:30am SSW 4-5 kts 23.2°c 1013.9 hPa 97% 0.0mm
12/12:00am S 4-5 kts 22.4°c 1014.0 hPa 98% 0.0mm